Location: Grange Rosano
(44.4500°N, 6.9667°E)
Time: 21:23:39
(UTC+00:00)

Cosmos 614 Rocket - Pass Details

Date: 26 May 2022
Orbit: 732 x 764 km, 74.1° (Epoch: 01 July)

Event Time Altitude Azimuth Distance (km) Brightness Sun altitude
Rises 01:55:42 0° 338° (NNW) 3,216 7.7 -16.4°
Reaches altitude 10° 01:58:03 10° 337° (NNW) 2,291 6.9 -16.2°
Maximum altitude 02:03:16 81° 251° (WSW) 775 3.9 -15.6°
Drops below altitude 10° 02:08:28 10° 165° (SSE) 2,289 6.1 -15.0°
Enters shadow 02:09:16 - 165° (SSE) 2,602 6.4 -14.9°
